Weather History for Minden, LA

Change the Weather History Date:

Friday, March 29, 2013

  Actual Average (KBAD) Record (KBAD)
Temperature  
Mean Temperature 68 °F -  
Max Temperature 78 °F 69 °F 85 °F (2007)
Min Temperature 59 °F 50 °F 38 °F (2009)
Cooling Degree Days 3    
Growing Degree Days 18 (Base 50)    
Moisture  
Dew Point 52 °F    
Average Humidity 61    
Maximum Humidity 86    
Minimum Humidity 41    
Precipitation  
Precipitation 0.00 in - - ()
Sea Level Pressure  
Sea Level Pressure 30.19 in    
Wind  
Wind Speed 6 mph (SSW)    
Max Wind Speed 12 mph    
Max Gust Speed 20 mph    
Visibility 10 miles    
Events      
Averages and records for this station are not official NWS values.
T = Trace of Precipitation, MM = Missing Value Source: NWS Daily Summary

Daily Weather History Graph

Daily Weather History Graph

Search for Another Location

Airport:

Trip Planner

Search our weather history database for the weather conditions in past years. The results will help you decide how hot, cold, wet, or windy it might be!

Date:

Astronomy

Mar. 29, 2013 Rise Set
Actual Time 7:04 AM CDT 7:31 PM CDT
Civil Twilight 6:40 AM CDT 7:56 PM CDT
Nautical Twilight 6:11 AM CDT 8:25 PM CDT
Astronomical Twilight 5:41 AM CDT 8:54 PM CDT
Moon 10:20 PM CDT (3/29) 8:23 AM CDT (3/29)
Length of Visible Light 13h 15m
Length of Day
12h 26m
Waning Gibbous, 93% of the Moon is Illuminated
Mar 29
Waning Gibbous
Apr 2
Last Quarter
Apr 10
New
Apr 18
First Quarter
Apr 25
Full

Hourly Weather History & Observations

Time (CDT) Temp. Dew Point Humidity Pressure Visibility Wind Dir Wind Speed Gust Speed Precip Events Conditions
12:15 AM 63.5 °F 39.7 °F 42% 30.23 in 10.0 mi South 6.9 mph - N/A   Overcast
12:35 AM 63.1 °F 41.7 °F 46% 30.24 in 10.0 mi South 5.8 mph - N/A   Overcast
12:55 AM 62.6 °F 43.9 °F 50% 30.24 in 10.0 mi South 5.8 mph - N/A   Overcast
1:15 AM 62.4 °F 45.7 °F 54% 30.24 in 10.0 mi South 4.6 mph - N/A   Overcast
1:55 AM 61.9 °F 48.2 °F 61% 30.23 in 10.0 mi South 4.6 mph - N/A   Overcast
2:15 AM 61.3 °F 48.9 °F 64% 30.23 in 10.0 mi South 4.6 mph - N/A   Overcast
2:35 AM 61.5 °F 49.6 °F 65% 30.23 in 10.0 mi South 5.8 mph - N/A   Overcast
2:55 AM 61.2 °F 50.0 °F 67% 30.22 in 10.0 mi SSW 5.8 mph - N/A   Overcast
3:35 AM 60.6 °F 50.9 °F 70% 30.22 in 10.0 mi SSW 8.1 mph - N/A   Overcast
3:55 AM 60.3 °F 51.1 °F 72% 30.22 in 10.0 mi South 4.6 mph - N/A   Overcast
4:15 AM 59.9 °F 51.4 °F 74% 30.22 in 10.0 mi South 6.9 mph - N/A   Overcast
4:35 AM 59.9 °F 51.8 °F 75% 30.21 in 10.0 mi South 4.6 mph - N/A   Overcast
4:55 AM 59.9 °F 52.0 °F 75% 30.22 in 10.0 mi South 5.8 mph - N/A   Overcast
5:15 AM 59.9 °F 52.2 °F 76% 30.22 in 10.0 mi South 5.8 mph - N/A   Overcast
5:35 AM 59.5 °F 52.2 °F 77% 30.22 in 10.0 mi South 5.8 mph - N/A   Overcast
5:55 AM 59.7 °F 52.2 °F 76% 30.23 in 10.0 mi SSW 5.8 mph - N/A   Overcast
6:15 AM 59.5 °F 52.2 °F 77% 30.23 in 10.0 mi South 6.9 mph - N/A   Overcast
6:35 AM 59.4 °F 52.2 °F 77% 30.23 in 10.0 mi SSW 5.8 mph - N/A   Overcast
6:55 AM 59.4 °F 52.3 °F 78% 30.23 in 10.0 mi South 5.8 mph - N/A   Overcast
7:15 AM 59.2 °F 52.2 °F 78% 30.22 in 10.0 mi South 5.8 mph - N/A   Overcast
7:35 AM 59.0 °F 51.8 °F 77% 30.23 in 10.0 mi South 6.9 mph - N/A   Overcast
7:55 AM 59.4 °F 51.8 °F 76% 30.23 in 10.0 mi SSW 6.9 mph - N/A   Overcast
8:15 AM 59.9 °F 51.3 °F 73% 30.23 in 10.0 mi SSW 6.9 mph - N/A   Overcast
8:35 AM 61.7 °F 51.1 °F 68% 30.23 in 10.0 mi SSW 8.1 mph 16.1 mph N/A   Mostly Cloudy
8:55 AM 63.7 °F 51.1 °F 64% 30.24 in 10.0 mi SSW 9.2 mph - N/A   Mostly Cloudy
9:15 AM 63.5 °F 52.3 °F 67% 30.24 in 10.0 mi SSW 10.4 mph 17.3 mph N/A   Overcast
9:35 AM 63.9 °F 53.2 °F 68% 30.25 in 10.0 mi SSW 8.1 mph - N/A   Overcast
9:55 AM 64.2 °F 53.6 °F 68% 30.25 in 10.0 mi SSW 6.9 mph 16.1 mph N/A   Overcast
10:15 AM 65.1 °F 53.8 °F 67% 30.25 in 10.0 mi SW 9.2 mph 18.4 mph N/A   Scattered Clouds
10:35 AM 66.7 °F 54.5 °F 65% 30.24 in 10.0 mi SW 8.1 mph - N/A   Scattered Clouds
10:55 AM 69.1 °F 54.1 °F 59% 30.24 in 10.0 mi SW 8.1 mph - N/A   Mostly Cloudy
11:15 AM 69.4 °F 53.2 °F 56% 30.24 in 10.0 mi SSW 9.2 mph - N/A   Overcast
11:55 AM 71.6 °F 54.7 °F 55% 30.22 in 10.0 mi SSW 9.2 mph 19.6 mph N/A   Mostly Cloudy
12:15 PM 72.1 °F 54.5 °F 54% 30.21 in 10.0 mi SSE 8.1 mph 16.1 mph N/A   Scattered Clouds
12:35 PM 73.6 °F 53.8 °F 50% 30.20 in 10.0 mi SW 8.1 mph - N/A   Scattered Clouds
12:55 PM 74.8 °F 53.1 °F 47% 30.19 in 10.0 mi South 6.9 mph - N/A   Scattered Clouds
1:15 PM 75.2 °F 52.7 °F 45% 30.18 in 10.0 mi SSW 6.9 mph - N/A   Mostly Cloudy
1:35 PM 76.5 °F 52.0 °F 42% 30.18 in 10.0 mi SSW 5.8 mph - N/A   Mostly Cloudy
1:55 PM 76.3 °F 51.4 °F 42% 30.16 in 10.0 mi SSE 8.1 mph 18.4 mph N/A   Scattered Clouds
2:15 PM 75.6 °F 51.1 °F 42% 30.16 in 10.0 mi South 8.1 mph - N/A   Scattered Clouds
2:35 PM 76.5 °F 51.1 °F 41% 30.15 in 10.0 mi South 5.8 mph 16.1 mph N/A   Mostly Cloudy
2:55 PM 77.0 °F 51.4 °F 41% 30.15 in 10.0 mi SSW 6.9 mph - N/A   Overcast
3:15 PM 75.6 °F 51.1 °F 42% 30.15 in 10.0 mi SW 9.2 mph - N/A   Overcast
3:35 PM 77.0 °F 52.3 °F 42% 30.15 in 10.0 mi WSW 11.5 mph - N/A   Overcast
3:55 PM 77.2 °F 51.8 °F 41% 30.14 in 10.0 mi SW 3.5 mph - N/A   Overcast
4:15 PM 76.1 °F 52.0 °F 43% 30.15 in 10.0 mi SW 9.2 mph - N/A   Overcast
4:35 PM 76.3 °F 52.2 °F 43% 30.15 in 10.0 mi WSW 8.1 mph - N/A   Overcast
4:55 PM 76.1 °F 52.7 °F 44% 30.14 in 10.0 mi WSW 8.1 mph - N/A   Overcast
5:15 PM 75.2 °F 53.2 °F 46% 30.14 in 10.0 mi SSW 3.5 mph - N/A   Overcast
5:35 PM 74.7 °F 53.2 °F 47% 30.13 in 10.0 mi SW 3.5 mph - N/A   Overcast
5:55 PM 74.5 °F 53.8 °F 48% 30.13 in 10.0 mi SSW 3.5 mph - N/A   Overcast
6:15 PM 75.0 °F 54.3 °F 48% 30.13 in 10.0 mi SW 3.5 mph - N/A   Overcast
6:35 PM 73.6 °F 54.7 °F 51% 30.13 in 10.0 mi SSW 3.5 mph - N/A   Mostly Cloudy
6:55 PM 72.7 °F 55.0 °F 54% 30.13 in 10.0 mi Calm Calm - N/A   Scattered Clouds
7:15 PM 72.0 °F 55.0 °F 55% 30.14 in 10.0 mi Calm Calm - N/A   Mostly Cloudy
7:35 PM 70.7 °F 55.4 °F 58% 30.14 in 10.0 mi Calm Calm - N/A   Scattered Clouds
7:55 PM 68.5 °F 55.8 °F 64% 30.14 in 10.0 mi Calm Calm - N/A   Scattered Clouds
8:15 PM 66.7 °F 55.9 °F 68% 30.13 in 7.0 mi South 3.5 mph - N/A   Clear
8:35 PM 67.8 °F 55.4 °F 64% 30.12 in 10.0 mi Calm Calm - N/A   Clear
8:55 PM 68.0 °F 55.4 °F 64% 30.12 in 7.0 mi SSW 4.6 mph - N/A   Clear
9:15 PM 67.5 °F 55.4 °F 65% 30.13 in 10.0 mi Calm Calm - N/A   Clear
9:35 PM 66.6 °F 55.8 °F 68% 30.13 in 10.0 mi Calm Calm - N/A   Clear
9:55 PM 64.4 °F 55.8 °F 73% 30.14 in 10.0 mi Calm Calm - N/A   Clear
10:15 PM 63.3 °F 55.4 °F 75% 30.15 in 10.0 mi Calm Calm - N/A   Clear
10:35 PM 62.2 °F 55.8 °F 79% 30.14 in 10.0 mi Calm Calm - N/A   Clear
10:55 PM 60.1 °F 54.9 °F 83% 30.15 in 10.0 mi Calm Calm - N/A   Clear
11:15 PM 59.9 °F 55.0 °F 84% 30.15 in 10.0 mi Calm Calm - N/A   Scattered Clouds
11:35 PM 59.2 °F 54.5 °F 84% 30.15 in 10.0 mi Calm Calm - N/A   Scattered Clouds
11:55 PM 59.9 °F 55.6 °F 86% 30.14 in 10.0 mi Calm Calm - N/A   Scattered Clouds